This demonstration page uses our WeatherBlox Daily Observations layout. Learn more.

Left ArrowRight Arrow

41.86663, -103.66717

Hourly Observations for May 7, 2021

Temp ( °F °C ) Dew Point ( °F °C ) Humidity (%) Winds ( mph kmh ) Pressure ( in mb ) Visibility ( mi km ) Precip ( " mm )
12:53 am 00:53 Clear 48 8.9 37 2.8 66 66 E 9 15 30.04 1017 10 16 N/A
1:53 am 01:53 Clear 46 7.8 36 2.2 68 68 E 7 11 30.02 1017 10 16 N/A
2:53 am 02:53 Clear 44 6.7 36 2.2 73 73 E 7 11 30.00 1016 10 16 N/A
3:53 am 03:53 Clear 44 6.7 36 2.2 73 73 E 8 13 29.98 1015 10 16 N/A
4:53 am 04:53 Clear 39 3.9 34 1.1 82 82 E 6 9 29.98 1015 10 16 N/A
5:53 am 05:53 Sunny 41 5 35 1.7 79 79 E 5 7 29.96 1015 10 16 N/A
6:53 am 06:53 Sunny 47 8.3 38 3.3 71 71 E 8 13 29.95 1014 10 16 N/A
7:53 am 07:53 Sunny 51 10.6 40 4.4 66 66 ESE 9 15 29.96 1014 10 16 N/A
8:53 am 08:53 Sunny 57 13.9 42 5.6 58 58 ESE 7 11 29.93 1014 10 16 N/A
9:53 am 09:53 Sunny 62 16.7 43 6.1 50 50 SE 8 13 29.93 1013 10 16 N/A
10:53 am 10:53 Sunny 66 18.9 44 6.7 45 45 ESE 10 17 29.89 1012 10 16 N/A
11:53 am 11:53 Sunny 71 21.7 45 7.2 39 39 ESE 15 24 29.87 1011 10 16 N/A
12:53 pm 12:53 Sunny 73 22.8 44 6.7 35 35 SE 13 20 29.83 1010 10 16 N/A
1:53 pm 13:53 Sunny 75 23.9 45 7.2 34 34 ESE 16 26 29.81 1010 10 16 N/A
2:53 pm 14:53 Sunny 77 25 46 7.8 33 33 SE 20 31 29.78 1008 10 16 N/A
3:53 pm 15:53 Sunny 75 23.9 45 7.2 34 34 SE 18 30 29.76 1008 10 16 N/A
4:53 pm 16:53 Partly Cloudy 76 24.4 46 7.8 35 35 ESE 17 28 29.76 1008 10 16 N/A
6:53 pm 18:53 Cloudy 72 22.2 45 7.2 38 38 ESE 12 19 29.72 1007 10 16 N/A
7:53 pm 19:53 Sunny 70 21.1 46 7.8 42 42 SE 20 31 29.69 1005 10 16 N/A
8:53 pm 20:53 Clear 66 18.9 47 8.3 50 50 SE 20 31 29.67 1005 10 16 N/A
9:53 pm 21:53 Clear 63 17.2 47 8.3 56 56 SE 17 28 29.67 1005 10 16 N/A
10:53 pm 22:53 Clear 60 15.6 46 7.8 60 60 SE 17 28 29.66 1004 10 16 N/A
11:53 pm 23:53 Clear 59 15 46 7.8 62 62 SE 20 31 29.63 1004 10 16 N/A

Powered by AerisWeather